Location: Bern
(46.9167°N, 7.4667°E)
Time: 17:50:25
(UTC+02:00)

Tiangong - Visible Passes

Search period start: 23 October 2021 00:00
Search period end: 01 November 2021 23:00
Orbit: 381 x 390 km, 41.5° (Epoch: 23 October)

Date Brightness Start Highest point End Pass type
(mag) Time Alt. Az. Time Alt. Az. Time Alt. Az.
23 Oct 2.4 19:44:51 10° WSW 19:47:43 30° S 19:49:05 21° SE visible
24 Oct 2.7 20:22:11 10° WSW 20:24:45 26° SSW 20:24:45 26° SSW visible
25 Oct 2.6 19:22:51 10° WSW 19:25:42 29° S 19:28:12 12° SE visible
25 Oct 4.2 20:59:56 10° WSW 21:00:25 12° SW 21:00:25 12° SW visible
26 Oct 3.1 20:00:19 10° WSW 20:02:51 21° SSW 20:03:54 18° SSE visible
27 Oct 2.9 19:00:52 10° WSW 19:03:36 26° S 19:06:20 10° SE visible
27 Oct 4.0 20:38:46 10° SW 20:39:41 11° SSW 20:39:41 11° SSW visible
28 Oct 3.7 19:38:36 10° WSW 19:40:39 16° SSW 19:42:43 10° SSE visible
30 Oct 4.2 19:17:23 10° SW 19:18:20 11° SSW 19:19:17 10° S visible
